This demonstration page uses our WeatherBlox Daily Observations layout. Learn more.

Left ArrowRight Arrow

Hourly Observations for February 11, 2016

Temp ( °F °C ) Dew Point ( °F °C ) Humidity (%) Winds ( mph kmh ) Pressure ( in mb ) Visibility ( mi km ) Precip ( " mm )
12:53 am 00:53 Clear 52 11.1 45 7.2 77 77 NNE 3 6 30.13 1020 10 16 0.00 0.00
1:53 am 01:53 Clear 53 11.7 44 6.7 72 72 Calm 30.12 1020 10 16 0.00 0.00
2:53 am 02:53 Clear 52 11.1 44 6.7 75 75 Calm 30.11 1020 10 16 0.00 0.00
3:53 am 03:53 Clear 51 10.6 44 6.7 77 77 Calm 30.11 1020 10 16 0.00 0.00
4:53 am 04:53 Clear 49 9.4 43 6.1 80 80 SSE 3 6 30.13 1020 10 16 0.00 0.00
5:53 am 05:53 Clear 46 7.8 42 5.6 86 86 Calm 30.14 1021 10 16 0.00 0.00
6:53 am 06:53 Clear 47 8.3 42 5.6 83 83 NNE 6 9 30.16 1021 10 16 0.00 0.00
7:11 am 07:11 Sunny 48 9 43 6 82 82 Calm 30.18 1022 10 16 0.00 0.00
7:53 am 07:53 Sunny 51 10.6 42 5.6 71 71 N 6 9 30.18 1022 10 16 0.00 0.00
8:53 am 08:53 Sunny 52 11.1 45 7.2 77 77 Calm 30.19 1023 10 16 0.00 0.00
9:53 am 09:53 Sunny 59 15 44 6.7 58 58 Calm 30.20 1023 10 16 0.00 0.00
10:53 am 10:53 Sunny 62 16.7 47 8.3 58 58 Calm 30.19 1022 10 16 0.00 0.00
11:25 am 11:25 Sunny 63 17 46 8 56 56 Calm 30.18 1022 10 16 0.00 0.00
11:53 am 11:53 Sunny 67 19.4 44 6.7 44 44 Calm 30.17 1022 10 16 0.00 0.00
12:53 pm 12:53 Sunny 68 20 44 6.7 42 42 Calm 30.15 1021 10 16 0.00 0.00
1:53 pm 13:53 Sunny 70 21.1 45 7.2 41 41 VRB 3 6 30.12 1020 10 16 0.00 0.00
2:53 pm 14:53 Sunny 70 21.1 46 7.8 42 42 SW 5 7 30.11 1020 10 16 0.00 0.00
3:53 pm 15:53 Sunny 71 21.7 46 7.8 41 41 Calm 30.11 1020 10 16 0.00 0.00
4:53 pm 16:53 Sunny 69 20.6 47 8.3 45 45 Calm 30.11 1020 10 16 0.00 0.00
5:53 pm 17:53 Clear 65 18.3 48 8.9 54 54 Calm 30.13 1020 10 16 0.00 0.00
6:53 pm 18:53 Clear 62 16.7 48 8.9 60 60 Calm 30.14 1021 10 16 0.00 0.00
7:53 pm 19:53 Mostly Clear 59 15 47 8.3 64 64 N 6 9 30.14 1021 10 16 0.00 0.00
8:53 pm 20:53 Clear 56 13.3 47 8.3 72 72 Calm 30.15 1021 10 16 0.00 0.00
9:53 pm 21:53 Clear 54 12.2 46 7.8 75 75 Calm 30.16 1021 10 16 0.00 0.00
10:53 pm 22:53 Clear 53 11.7 45 7.2 74 74 Calm 30.17 1022 10 16 0.00 0.00
11:53 pm 23:53 Clear 50 10 44 6.7 80 80 Calm 30.18 1022 10 16 0.00 0.00

Powered by AerisWeather